sat.trackr.live / text

‹ back to catalog

DX1

NORAD 40071 · 2014-037C

PAYLOAD ACTIVE UNKNOWN

§ Identity

Operator
Country
CIS
Launch date
2014-07-08
Launch site
TYMSC
Launch vehicle
Mass (kg)
RCS (m²)
0.34

External: N2YO · Heavens-Above · Gunter

§ Orbital elements

Epoch: 2026-09-20T04:14:55.811904Z

Period
96.63 min
Inclination
98.3986°
Eccentricity
0.0006676
Mean motion
14.90223228 rev/d
Perigee alt
592.6 km
Apogee alt
601.9 km
Semi-major
6,975.4 km
B*
6.8852e-5
RAAN
230.7150°
Arg perigee
334.8570°
Mean anomaly
25.2320°
Rev number
66,025

§ Raw data

DX11 40071U 14037C   26263.17703486  .00000605  00000+0  68852-4 0  99952 40071  98.3986 230.7150 0006676 334.8570  25.2320 14.90223228660256

JSON: /api/v1/satellites/40071 · /tle

For live sub-satellite position, see the globe view (requires WebGL).

§ Visibility from observer

Set your observer location to see the next 7 days of passes ≥ 10°. The values pass through the URL so the page stays shareable.

No JS? Fill the form by hand. The geolocation button needs JavaScript.

§ Radio — SatNOGS DB

ModeDescriptionDownlinkUplink
GFSK 9k6 FSK TLM 438.225 MHz
FM Mode S 2.270 GHz
GFSK PE0SAT - 9k6 GFSK TLM 438.226 MHz

3 transmitters · refreshed weekly from db.satnogs.org